Location: Newark
(50.0306°N, 2.3272°E)
Time: 16:00:42
(UTC+00:00)

Transit 2A Rocket - Pass Details

Date: 15 December 2019
Orbit: 593 x 910 km, 66.7° (Epoch: 28 January)

Event Time Altitude Azimuth Distance (km) Brightness Sun altitude
Rises 01:28:03 0° 304° (NW) 2,907 - -56.6°
Reaches altitude 10° 01:32:25 10° 263° (W) 2,059 - -56.1°
Maximum altitude 01:33:10 10° 254° (WSW) 2,046 - -56.0°
Drops below altitude 10° 01:33:56 10° 245° (WSW) 2,083 - -55.9°
Sets 01:38:32 0° 205° (SSW) 3,084 - -55.3°
